Time,TemperatureF,DewpointF,PressureIn,WindDirection,WindDirectionDegrees,WindSpeedMPH,WindSpeedGustMPH,Humidity,HourlyPrecipIn,Conditions,Clouds,dailyrainin,SoftwareType,DateUTC
2013-02-08 00:02:00,62.7,48.6,30.03,East,81,7.0,17.0,60,0.00,,,0.01,Wunderground v.1.15,2013-02-08 06:02:00,
2013-02-08 00:08:00,62.4,48.3,30.03,NE,41,5.0,17.0,60,0.00,,,0.01,Wunderground v.1.15,2013-02-08 06:08:00,
2013-02-08 00:14:00,62.2,48.6,30.03,NNE,31,5.0,17.0,61,0.00,,,0.01,Wunderground v.1.15,2013-02-08 06:14:00,
2013-02-08 00:20:00,62.0,48.4,30.04,ENE,62,5.0,17.0,61,0.00,,,0.01,Wunderground v.1.15,2013-02-08 06:20:00,
2013-02-08 00:26:00,61.7,48.5,30.04,ENE,63,6.0,17.0,62,0.00,,,0.01,Wunderground v.1.15,2013-02-08 06:26:00,
2013-02-08 00:32:00,61.4,48.3,30.03,NE,51,5.0,17.0,62,0.00,,,0.01,Wunderground v.1.15,2013-02-08 06:32:00,
2013-02-08 00:38:00,61.2,48.5,30.03,NNE,27,5.0,17.0,63,0.00,,,0.01,Wunderground v.1.15,2013-02-08 06:38:00,
2013-02-08 00:44:00,61.0,48.3,30.03,NE,43,6.0,17.0,63,0.00,,,0.01,Wunderground v.1.15,2013-02-08 06:44:00,
2013-02-08 00:50:00,60.7,48.0,30.03,WSW,253,6.0,6.0,63,0.00,,,0.01,Wunderground v.1.15,2013-02-08 06:50:00,
2013-02-08 00:56:00,60.6,47.9,30.03,NNE,28,6.0,17.0,63,0.00,,,0.01,Wunderground v.1.15,2013-02-08 06:56:00,
2013-02-08 01:02:00,60.4,47.7,30.03,NNE,25,7.0,16.0,63,0.00,,,0.00,Wunderground v.1.15,2013-02-08 07:02:00,
2013-02-08 01:08:00,60.1,47.5,30.03,NNE,27,5.0,16.0,63,0.00,,,0.00,Wunderground v.1.15,2013-02-08 07:08:00,
2013-02-08 01:14:00,59.9,47.3,30.03,NNE,30,5.0,16.0,63,0.00,,,0.00,Wunderground v.1.15,2013-02-08 07:14:00,
2013-02-08 01:20:00,59.7,47.1,30.03,WNW,286,5.0,5.0,63,0.00,,,0.00,Wunderground v.1.15,2013-02-08 07:20:00,
2013-02-08 01:26:00,59.5,46.9,30.04,ENE,60,5.0,16.0,63,0.00,,,0.00,Wunderground v.1.15,2013-02-08 07:26:00,
2013-02-08 01:32:00,59.3,46.7,30.04,ENE,58,5.0,16.0,63,0.00,,,0.00,Wunderground v.1.15,2013-02-08 07:32:00,
2013-02-08 01:38:00,59.2,46.6,30.04,NNE,24,6.0,16.0,63,0.00,,,0.00,Wunderground v.1.15,2013-02-08 07:38:00,
2013-02-08 01:44:00,59.1,46.5,30.04,NNW,342,5.0,16.0,63,0.00,,,0.00,Wunderground v.1.15,2013-02-08 07:44:00,
2013-02-08 01:50:00,58.9,46.3,30.04,ENE,67,5.0,16.0,63,0.00,,,0.00,Wunderground v.1.15,2013-02-08 07:50:00,
2013-02-08 01:56:00,58.7,46.1,30.04,NNW,348,5.0,16.0,63,0.00,,,0.00,Wunderground v.1.15,2013-02-08 07:56:00,
2013-02-08 02:02:00,58.6,46.5,30.04,SSW,199,5.0,16.0,64,0.00,,,0.00,Wunderground v.1.15,2013-02-08 08:02:00,
2013-02-08 02:08:00,58.4,46.3,30.03,NNE,23,4.0,16.0,64,0.00,,,0.00,Wunderground v.1.15,2013-02-08 08:08:00,
2013-02-08 02:14:00,58.3,45.8,30.03,West,266,5.0,14.0,63,0.00,,,0.00,Wunderground v.1.15,2013-02-08 08:14:00,
2013-02-08 02:20:00,58.1,45.6,30.03,NE,50,5.0,14.0,63,0.00,,,0.00,Wunderground v.1.15,2013-02-08 08:20:00,
2013-02-08 02:26:00,58.0,45.5,30.03,NE,35,6.0,14.0,63,0.00,,,0.00,Wunderground v.1.15,2013-02-08 08:26:00,
2013-02-08 02:32:00,57.9,45.4,30.04,NW,312,5.0,14.0,63,0.00,,,0.00,Wunderground v.1.15,2013-02-08 08:32:00,
2013-02-08 02:38:00,57.7,45.6,30.04,ENE,68,5.0,14.0,64,0.00,,,0.00,Wunderground v.1.15,2013-02-08 08:38:00,
2013-02-08 02:44:00,57.6,45.5,30.04,North,354,6.0,14.0,64,0.00,,,0.00,Wunderground v.1.15,2013-02-08 08:44:00,
2013-02-08 02:50:00,57.4,45.3,30.04,NW,318,7.0,14.0,64,0.00,,,0.00,Wunderground v.1.15,2013-02-08 08:50:00,
2013-02-08 02:56:00,57.4,45.3,30.04,NNE,25,7.0,14.0,64,0.00,,,0.00,Wunderground v.1.15,2013-02-08 08:56:00,
2013-02-08 03:02:00,57.2,45.1,30.04,NE,45,6.0,18.0,64,0.00,,,0.00,Wunderground v.1.15,2013-02-08 09:02:00,
2013-02-08 03:08:00,56.9,45.3,30.04,ENE,64,4.0,18.0,65,0.00,,,0.00,Wunderground v.1.15,2013-02-08 09:08:00,
2013-02-08 03:14:00,56.7,45.1,30.05,North,5,4.0,18.0,65,0.00,,,0.00,Wunderground v.1.15,2013-02-08 09:14:00,
2013-02-08 03:20:00,56.5,45.3,30.05,NW,316,4.0,4.0,66,0.00,,,0.00,Wunderground v.1.15,2013-02-08 09:20:00,
2013-02-08 03:26:00,56.3,45.1,30.05,NW,325,5.0,18.0,66,0.00,,,0.00,Wunderground v.1.15,2013-02-08 09:26:00,
2013-02-08 03:32:00,56.1,44.9,30.05,WNW,302,6.0,8.0,66,0.00,,,0.00,Wunderground v.1.15,2013-02-08 09:32:00,
2013-02-08 03:38:00,55.8,45.0,30.05,NW,316,6.0,18.0,67,0.00,,,0.00,Wunderground v.1.15,2013-02-08 09:38:00,
2013-02-08 03:44:00,55.6,44.8,30.05,NE,35,6.0,18.0,67,0.00,,,0.00,Wunderground v.1.15,2013-02-08 09:44:00,
2013-02-08 03:50:00,55.4,44.6,30.06,WNW,291,6.0,18.0,67,0.00,,,0.00,Wunderground v.1.15,2013-02-08 09:50:00,
2013-02-08 03:56:00,55.2,44.4,30.06,NE,46,6.0,18.0,67,0.00,,,0.00,Wunderground v.1.15,2013-02-08 09:56:00,
2013-02-08 04:02:00,55.0,44.2,30.06,NE,35,6.0,8.0,67,0.00,,,0.00,Wunderground v.1.15,2013-02-08 10:02:00,
2013-02-08 04:08:00,54.9,44.1,30.06,NE,49,7.0,16.0,67,0.00,,,0.00,Wunderground v.1.15,2013-02-08 10:08:00,
2013-02-08 04:14:00,54.7,44.0,30.07,NNE,26,6.0,16.0,67,0.00,,,0.00,Wunderground v.1.15,2013-02-08 10:14:00,
2013-02-08 04:20:00,54.6,44.2,30.07,North,4,7.0,16.0,68,0.00,,,0.00,Wunderground v.1.15,2013-02-08 10:20:00,
2013-02-08 04:26:00,54.4,44.1,30.07,NNE,25,7.0,16.0,68,0.00,,,0.00,Wunderground v.1.15,2013-02-08 10:26:00,
2013-02-08 04:32:00,54.2,43.9,30.07,West,281,6.0,16.0,68,0.00,,,0.00,Wunderground v.1.15,2013-02-08 10:32:00,
2013-02-08 04:38:00,54.0,43.7,30.07,NNE,31,5.0,16.0,68,0.00,,,0.00,Wunderground v.1.15,2013-02-08 10:38:00,
2013-02-08 04:44:00,53.8,43.9,30.08,NNE,18,5.0,16.0,69,0.00,,,0.00,Wunderground v.1.15,2013-02-08 10:44:00,
2013-02-08 04:50:00,53.7,43.8,30.08,NE,43,5.0,5.0,69,0.00,,,0.00,Wunderground v.1.15,2013-02-08 10:50:00,
2013-02-08 04:56:00,53.5,43.6,30.09,West,264,5.0,16.0,69,0.00,,,0.00,Wunderground v.1.15,2013-02-08 10:56:00,
2013-02-08 05:02:00,53.3,43.4,30.09,NE,50,4.0,15.0,69,0.00,,,0.00,Wunderground v.1.15,2013-02-08 11:02:00,
2013-02-08 05:08:00,53.1,43.2,30.09,NNE,22,4.0,15.0,69,0.00,,,0.00,Wunderground v.1.15,2013-02-08 11:08:00,
2013-02-08 05:14:00,53.0,43.1,30.10,NNE,23,4.0,15.0,69,0.00,,,0.00,Wunderground v.1.15,2013-02-08 11:14:00,
2013-02-08 05:20:00,52.9,43.0,30.09,North,5,5.0,15.0,69,0.00,,,0.00,Wunderground v.1.15,2013-02-08 11:20:00,
2013-02-08 05:26:00,52.8,42.9,30.10,NW,321,6.0,15.0,69,0.00,,,0.00,Wunderground v.1.15,2013-02-08 11:26:00,
2013-02-08 05:32:00,52.6,42.7,30.10,ENE,73,5.0,15.0,69,0.00,,,0.00,Wunderground v.1.15,2013-02-08 11:32:00,
2013-02-08 05:38:00,52.4,42.5,30.11,ENE,63,4.0,15.0,69,0.00,,,0.00,Wunderground v.1.15,2013-02-08 11:38:00,
2013-02-08 05:44:00,52.3,42.4,30.11,ENE,60,4.0,8.0,69,0.00,,,0.00,Wunderground v.1.15,2013-02-08 11:44:00,
2013-02-08 05:50:00,52.2,42.3,30.12,NNE,27,4.0,4.0,69,0.00,,,0.00,Wunderground v.1.15,2013-02-08 11:50:00,
2013-02-08 05:56:00,52.0,42.1,30.12,North,355,3.0,15.0,69,0.00,,,0.00,Wunderground v.1.15,2013-02-08 11:56:00,
2013-02-08 06:02:00,51.8,41.9,30.12,North,10,4.0,4.0,69,0.00,,,0.00,Wunderground v.1.15,2013-02-08 12:02:00,
2013-02-08 06:08:00,51.7,41.9,30.12,NNE,26,4.0,10.0,69,0.00,,,0.00,Wunderground v.1.15,2013-02-08 12:08:00,
2013-02-08 06:14:00,51.6,42.1,30.13,ENE,63,4.0,10.0,70,0.00,,,0.00,Wunderground v.1.15,2013-02-08 12:14:00,
2013-02-08 06:20:00,51.5,42.0,30.13,NE,43,4.0,10.0,70,0.00,,,0.00,Wunderground v.1.15,2013-02-08 12:20:00,
2013-02-08 06:26:00,51.3,41.8,30.14,ENE,70,4.0,10.0,70,0.00,,,0.00,Wunderground v.1.15,2013-02-08 12:26:00,
2013-02-08 06:32:00,51.1,41.7,30.14,NE,34,3.0,10.0,70,0.00,,,0.00,Wunderground v.1.15,2013-02-08 12:32:00,
2013-02-08 06:38:00,50.8,41.7,30.14,ENE,62,2.0,10.0,71,0.00,,,0.00,Wunderground v.1.15,2013-02-08 12:38:00,
2013-02-08 06:44:00,50.6,41.5,30.14,NE,41,2.0,10.0,71,0.00,,,0.00,Wunderground v.1.15,2013-02-08 12:44:00,
2013-02-08 06:50:00,50.3,41.6,30.15,NE,41,2.0,10.0,72,0.00,,,0.00,Wunderground v.1.15,2013-02-08 12:50:00,
2013-02-08 06:56:00,50.1,41.4,30.15,NE,50,2.0,10.0,72,0.00,,,0.00,Wunderground v.1.15,2013-02-08 12:56:00,
2013-02-08 07:02:00,50.0,41.3,30.15,NE,47,3.0,9.0,72,0.00,,,0.00,Wunderground v.1.15,2013-02-08 13:02:00,
2013-02-08 07:08:00,50.0,41.3,30.15,NE,43,3.0,9.0,72,0.00,,,0.00,Wunderground v.1.15,2013-02-08 13:08:00,
2013-02-08 07:14:00,49.9,41.2,30.15,NE,35,3.0,9.0,72,0.00,,,0.00,Wunderground v.1.15,2013-02-08 13:14:00,
2013-02-08 07:20:00,49.9,41.2,30.16,NNE,26,3.0,9.0,72,0.00,,,0.00,Wunderground v.1.15,2013-02-08 13:20:00,
2013-02-08 07:26:00,49.9,41.2,30.16,NE,41,4.0,9.0,72,0.00,,,0.00,Wunderground v.1.15,2013-02-08 13:26:00,
2013-02-08 07:32:00,49.9,41.2,30.16,NNE,12,4.0,9.0,72,0.00,,,0.00,Wunderground v.1.15,2013-02-08 13:32:00,
2013-02-08 07:38:00,49.8,41.1,30.16,ENE,68,4.0,9.0,72,0.00,,,0.00,Wunderground v.1.15,2013-02-08 13:38:00,
2013-02-08 07:44:00,49.9,41.2,30.17,East,80,3.0,9.0,72,0.00,,,0.00,Wunderground v.1.15,2013-02-08 13:44:00,
2013-02-08 07:50:00,49.9,41.2,30.17,NW,318,2.0,9.0,72,0.00,,,0.00,Wunderground v.1.15,2013-02-08 13:50:00,
2013-02-08 07:56:00,49.9,41.2,30.17,NNE,16,3.0,9.0,72,0.00,,,0.00,Wunderground v.1.15,2013-02-08 13:56:00,
2013-02-08 08:02:00,49.9,41.2,30.17,NE,37,3.0,10.0,72,0.00,,,0.00,Wunderground v.1.15,2013-02-08 14:02:00,
2013-02-08 08:08:00,50.2,41.2,30.17,ENE,75,3.0,10.0,71,0.00,,,0.00,Wunderground v.1.15,2013-02-08 14:08:00,
2013-02-08 08:14:00,50.6,41.2,30.18,NNE,26,4.0,10.0,70,0.00,,,0.00,Wunderground v.1.15,2013-02-08 14:14:00,
2013-02-08 08:20:00,50.9,41.5,30.18,NE,41,3.0,10.0,70,0.00,,,0.00,Wunderground v.1.15,2013-02-08 14:20:00,
2013-02-08 08:26:00,51.1,41.3,30.18,ENE,70,4.0,10.0,69,0.00,,,0.00,Wunderground v.1.15,2013-02-08 14:26:00,
2013-02-08 08:32:00,51.4,41.6,30.18,NE,51,5.0,10.0,69,0.00,,,0.00,Wunderground v.1.15,2013-02-08 14:32:00,
2013-02-08 08:38:00,51.4,41.2,30.18,ENE,72,6.0,10.0,68,0.00,,,0.00,Wunderground v.1.15,2013-02-08 14:38:00,
2013-02-08 08:44:00,51.6,41.4,30.18,ENE,73,6.0,10.0,68,0.00,,,0.00,Wunderground v.1.15,2013-02-08 14:44:00,
2013-02-08 08:50:00,52.0,41.4,30.18,NE,34,6.0,6.0,67,0.00,,,0.00,Wunderground v.1.15,2013-02-08 14:50:00,
2013-02-08 08:56:00,52.2,41.2,30.18,ENE,58,5.0,10.0,66,0.00,,,0.00,Wunderground v.1.15,2013-02-08 14:56:00,
2013-02-08 09:02:00,52.4,41.4,30.18,NE,48,6.0,15.0,66,0.00,,,0.00,Wunderground v.1.15,2013-02-08 15:02:00,
2013-02-08 09:08:00,52.8,41.0,30.18,ENE,57,7.0,15.0,64,0.00,,,0.00,Wunderground v.1.15,2013-02-08 15:08:00,
2013-02-08 09:14:00,53.3,41.0,30.18,NE,43,7.0,15.0,63,0.00,,,0.00,Wunderground v.1.15,2013-02-08 15:14:00,
2013-02-08 09:20:00,53.7,41.0,30.18,ENE,57,6.0,6.0,62,0.00,,,0.00,Wunderground v.1.15,2013-02-08 15:20:00,
2013-02-08 09:26:00,54.5,40.5,30.19,NNE,27,5.0,15.0,59,0.00,,,0.00,Wunderground v.1.15,2013-02-08 15:26:00,
2013-02-08 09:32:00,54.7,39.8,30.19,SE,128,7.0,15.0,57,0.00,,,0.00,Wunderground v.1.15,2013-02-08 15:32:00,
2013-02-08 09:38:00,55.3,39.9,30.19,ENE,73,7.0,15.0,56,0.00,,,0.00,Wunderground v.1.15,2013-02-08 15:38:00,
2013-02-08 09:44:00,56.0,39.1,30.19,ENE,74,7.0,15.0,53,0.00,,,0.00,Wunderground v.1.15,2013-02-08 15:44:00,
2013-02-08 09:50:00,56.2,38.8,30.19,NNE,14,7.0,7.0,52,0.00,,,0.00,Wunderground v.1.15,2013-02-08 15:50:00,
2013-02-08 09:56:00,56.6,38.7,30.19,ENE,70,8.0,15.0,51,0.00,,,0.00,Wunderground v.1.15,2013-02-08 15:56:00,
2013-02-08 10:02:00,56.7,38.8,30.19,ENE,57,8.0,15.0,51,0.00,,,0.00,Wunderground v.1.15,2013-02-08 16:02:00,
2013-02-08 10:08:00,57.3,38.3,30.19,ENE,61,7.0,15.0,49,0.00,,,0.00,Wunderground v.1.15,2013-02-08 16:08:00,
2013-02-08 10:14:00,57.8,38.8,30.19,ENE,60,7.0,15.0,49,0.00,,,0.00,Wunderground v.1.15,2013-02-08 16:14:00,
2013-02-08 10:20:00,57.9,37.8,30.19,NE,43,7.0,15.0,47,0.00,,,0.00,Wunderground v.1.15,2013-02-08 16:20:00,
2013-02-08 10:26:00,58.5,37.8,30.19,ENE,65,8.0,15.0,46,0.00,,,0.00,Wunderground v.1.15,2013-02-08 16:26:00,
2013-02-08 10:32:00,58.5,36.6,30.19,NE,44,8.0,9.0,44,0.00,,,0.00,Wunderground v.1.15,2013-02-08 16:32:00,
2013-02-08 10:38:00,58.8,36.9,30.19,NE,50,9.0,15.0,44,0.00,,,0.00,Wunderground v.1.15,2013-02-08 16:38:00,
2013-02-08 10:44:00,59.0,37.1,30.18,ENE,58,8.0,15.0,44,0.00,,,0.00,Wunderground v.1.15,2013-02-08 16:44:00,
2013-02-08 10:50:00,59.7,37.7,30.18,ENE,62,7.0,15.0,44,0.00,,,0.00,Wunderground v.1.15,2013-02-08 16:50:00,
2013-02-08 10:56:00,60.1,36.3,30.19,ENE,60,8.0,15.0,41,0.00,,,0.00,Wunderground v.1.15,2013-02-08 16:56:00,
2013-02-08 11:02:00,60.5,36.0,30.19,ESE,104,7.0,19.0,40,0.00,,,0.00,Wunderground v.1.15,2013-02-08 17:02:00,
2013-02-08 11:08:00,60.9,36.4,30.19,NE,53,6.0,19.0,40,0.00,,,0.00,Wunderground v.1.15,2013-02-08 17:08:00,
2013-02-08 11:14:00,60.9,35.1,30.19,NNE,25,8.0,19.0,38,0.00,,,0.00,Wunderground v.1.15,2013-02-08 17:14:00,
2013-02-08 11:20:00,61.8,35.2,30.19,East,82,9.0,9.0,37,0.00,,,0.00,Wunderground v.1.15,2013-02-08 17:20:00,
2013-02-08 11:26:00,61.9,34.6,30.18,East,85,8.0,19.0,36,0.00,,,0.00,Wunderground v.1.15,2013-02-08 17:26:00,
2013-02-08 11:32:00,62.1,34.1,30.18,NE,46,9.0,10.0,35,0.00,,,0.00,Wunderground v.1.15,2013-02-08 17:32:00,
2013-02-08 11:38:00,62.9,34.8,30.18,ENE,64,8.0,19.0,35,0.00,,,0.00,Wunderground v.1.15,2013-02-08 17:38:00,
2013-02-08 11:44:00,63.2,35.1,30.18,East,84,7.0,19.0,35,0.00,,,0.00,Wunderground v.1.15,2013-02-08 17:44:00,
2013-02-08 11:50:00,63.4,35.2,30.18,NE,54,7.0,19.0,35,0.00,,,0.00,Wunderground v.1.15,2013-02-08 17:50:00,
2013-02-08 11:56:00,64.0,35.8,30.17,ENE,77,6.0,19.0,35,0.00,,,0.00,Wunderground v.1.15,2013-02-08 17:56:00,
2013-02-08 12:02:00,64.0,35.0,30.17,ENE,58,6.0,19.0,34,0.00,,,0.00,Wunderground v.1.15,2013-02-08 18:02:00,
2013-02-08 12:08:00,64.0,35.0,30.17,ENE,63,7.0,19.0,34,0.00,,,0.00,Wunderground v.1.15,2013-02-08 18:08:00,
2013-02-08 12:14:00,64.0,35.8,30.17,ENE,69,7.0,17.0,35,0.00,,,0.00,Wunderground v.1.15,2013-02-08 18:14:00,
2013-02-08 12:20:00,64.6,35.6,30.16,NNE,33,6.0,17.0,34,0.00,,,0.00,Wunderground v.1.15,2013-02-08 18:20:00,
2013-02-08 12:26:00,65.1,36.0,30.16,ESE,113,7.0,17.0,34,0.00,,,0.00,Wunderground v.1.15,2013-02-08 18:26:00,
2013-02-08 12:32:00,65.5,35.6,30.15,ESE,117,6.0,8.0,33,0.00,,,0.00,Wunderground v.1.15,2013-02-08 18:32:00,
2013-02-08 12:38:00,65.2,34.6,30.15,NE,47,7.0,17.0,32,0.00,,,0.00,Wunderground v.1.15,2013-02-08 18:38:00,
2013-02-08 12:44:00,65.5,35.6,30.14,East,95,7.0,17.0,33,0.00,,,0.00,Wunderground v.1.15,2013-02-08 18:44:00,
2013-02-08 12:50:00,65.6,35.7,30.14,NE,44,7.0,7.0,33,0.00,,,0.00,Wunderground v.1.15,2013-02-08 18:50:00,
2013-02-08 12:56:00,66.1,35.4,30.13,ENE,75,6.0,17.0,32,0.00,,,0.00,Wunderground v.1.15,2013-02-08 18:56:00,
2013-02-08 13:02:00,66.2,35.4,30.13,ENE,65,7.0,17.0,32,0.00,,,0.00,Wunderground v.1.15,2013-02-08 19:02:00,
2013-02-08 13:08:00,66.5,34.9,30.13,NE,52,7.0,17.0,31,0.00,,,0.00,Wunderground v.1.15,2013-02-08 19:08:00,
2013-02-08 13:14:00,66.3,35.5,30.12,NE,52,6.0,15.0,32,0.00,,,0.00,Wunderground v.1.15,2013-02-08 19:14:00,
2013-02-08 13:20:00,66.3,34.7,30.12,NE,47,6.0,6.0,31,0.00,,,0.00,Wunderground v.1.15,2013-02-08 19:20:00,
2013-02-08 13:26:00,66.5,34.9,30.12,ESE,114,6.0,15.0,31,0.00,,,0.00,Wunderground v.1.15,2013-02-08 19:26:00,
2013-02-08 13:32:00,67.2,35.5,30.11,SE,134,4.0,15.0,31,0.00,,,0.00,Wunderground v.1.15,2013-02-08 19:32:00,
2013-02-08 13:38:00,67.7,35.1,30.11,ENE,60,4.0,15.0,30,0.00,,,0.00,Wunderground v.1.15,2013-02-08 19:38:00,
2013-02-08 13:44:00,68.1,34.6,30.11,ENE,72,4.0,15.0,29,0.00,,,0.00,Wunderground v.1.15,2013-02-08 19:44:00,
2013-02-08 13:50:00,68.0,34.5,30.11,East,91,5.0,5.0,29,0.00,,,0.00,Wunderground v.1.15,2013-02-08 19:50:00,
2013-02-08 13:56:00,67.9,34.4,30.10,ENE,57,5.0,15.0,29,0.00,,,0.00,Wunderground v.1.15,2013-02-08 19:56:00,
2013-02-08 14:02:00,68.1,34.6,30.09,ESE,108,5.0,6.0,29,0.00,,,0.00,Wunderground v.1.15,2013-02-08 20:02:00,
2013-02-08 14:08:00,68.5,34.1,30.09,ENE,69,5.0,13.0,28,0.00,,,0.00,Wunderground v.1.15,2013-02-08 20:08:00,
2013-02-08 14:14:00,67.9,33.6,30.09,ENE,77,5.0,13.0,28,0.00,,,0.00,Wunderground v.1.15,2013-02-08 20:14:00,
2013-02-08 14:20:00,68.1,34.6,30.09,ENE,72,6.0,6.0,29,0.00,,,0.00,Wunderground v.1.15,2013-02-08 20:20:00,
2013-02-08 14:26:00,68.1,34.6,30.09,ENE,58,5.0,13.0,29,0.00,,,0.00,Wunderground v.1.15,2013-02-08 20:26:00,
2013-02-08 14:32:00,68.3,33.9,30.09,ENE,65,5.0,13.0,28,0.00,,,0.00,Wunderground v.1.15,2013-02-08 20:32:00,
2013-02-08 14:38:00,68.6,34.2,30.09,ENE,60,5.0,13.0,28,0.00,,,0.00,Wunderground v.1.15,2013-02-08 20:38:00,
2013-02-08 14:44:00,68.4,34.0,30.08,NE,56,6.0,13.0,28,0.00,,,0.00,Wunderground v.1.15,2013-02-08 20:44:00,
2013-02-08 14:50:00,68.2,34.7,30.08,ESE,104,5.0,13.0,29,0.00,,,0.00,Wunderground v.1.15,2013-02-08 20:50:00,
2013-02-08 14:56:00,68.4,34.0,30.09,NE,41,5.0,13.0,28,0.00,,,0.00,Wunderground v.1.15,2013-02-08 20:56:00,
2013-02-08 15:02:00,68.4,34.0,30.08,ENE,57,5.0,14.0,28,0.00,,,0.00,Wunderground v.1.15,2013-02-08 21:02:00,
2013-02-08 15:08:00,69.0,34.5,30.08,SE,127,4.0,14.0,28,0.00,,,0.00,Wunderground v.1.15,2013-02-08 21:08:00,
2013-02-08 15:14:00,69.2,33.8,30.07,East,91,5.0,14.0,27,0.00,,,0.00,Wunderground v.1.15,2013-02-08 21:14:00,
2013-02-08 15:20:00,69.2,33.8,30.08,ENE,68,4.0,14.0,27,0.00,,,0.00,Wunderground v.1.15,2013-02-08 21:20:00,
2013-02-08 15:26:00,69.0,32.7,30.08,East,83,5.0,14.0,26,0.00,,,0.00,Wunderground v.1.15,2013-02-08 21:26:00,
2013-02-08 15:32:00,68.5,33.2,30.08,SE,143,4.0,14.0,27,0.00,,,0.00,Wunderground v.1.15,2013-02-08 21:32:00,
2013-02-08 15:38:00,68.0,31.8,30.08,East,99,4.0,14.0,26,0.00,,,0.00,Wunderground v.1.15,2013-02-08 21:38:00,
2013-02-08 15:44:00,67.7,32.5,30.08,East,91,5.0,14.0,27,0.00,,,0.00,Wunderground v.1.15,2013-02-08 21:44:00,
2013-02-08 15:50:00,67.6,31.5,30.08,ENE,77,4.0,4.0,26,0.00,,,0.00,Wunderground v.1.15,2013-02-08 21:50:00,
2013-02-08 15:56:00,67.8,32.6,30.07,East,85,4.0,14.0,27,0.00,,,0.00,Wunderground v.1.15,2013-02-08 21:56:00,
2013-02-08 16:02:00,67.5,32.3,30.07,NE,46,3.0,14.0,27,0.00,,,0.00,Wunderground v.1.15,2013-02-08 22:02:00,
2013-02-08 16:08:00,67.5,32.3,30.07,ESE,122,3.0,14.0,27,0.00,,,0.00,Wunderground v.1.15,2013-02-08 22:08:00,
2013-02-08 16:14:00,67.4,32.2,30.07,East,87,3.0,12.0,27,0.00,,,0.00,Wunderground v.1.15,2013-02-08 22:14:00,
2013-02-08 16:20:00,67.1,32.9,30.07,East,82,3.0,3.0,28,0.00,,,0.00,Wunderground v.1.15,2013-02-08 22:20:00,
2013-02-08 16:26:00,67.1,32.9,30.07,ESE,108,3.0,12.0,28,0.00,,,0.00,Wunderground v.1.15,2013-02-08 22:26:00,
2013-02-08 16:32:00,67.1,32.9,30.07,ESE,113,2.0,12.0,28,0.00,,,0.00,Wunderground v.1.15,2013-02-08 22:32:00,
2013-02-08 16:38:00,67.1,32.9,30.06,ENE,65,3.0,12.0,28,0.00,,,0.00,Wunderground v.1.15,2013-02-08 22:38:00,
2013-02-08 16:44:00,67.1,32.9,30.06,ENE,77,3.0,12.0,28,0.00,,,0.00,Wunderground v.1.15,2013-02-08 22:44:00,
2013-02-08 16:50:00,67.1,32.9,30.06,NE,45,2.0,12.0,28,0.00,,,0.00,Wunderground v.1.15,2013-02-08 22:50:00,
2013-02-08 16:56:00,67.1,32.9,30.06,East,94,2.0,12.0,28,0.00,,,0.00,Wunderground v.1.15,2013-02-08 22:56:00,
2013-02-08 17:02:00,67.0,32.8,30.07,ESE,104,3.0,8.0,28,0.00,,,0.00,Wunderground v.1.15,2013-02-08 23:02:00,
2013-02-08 17:08:00,66.9,32.7,30.06,ENE,74,3.0,8.0,28,0.00,,,0.00,Wunderground v.1.15,2013-02-08 23:08:00,
2013-02-08 17:14:00,66.9,32.7,30.06,ENE,68,4.0,8.0,28,0.00,,,0.00,Wunderground v.1.15,2013-02-08 23:14:00,
2013-02-08 17:20:00,67.0,32.8,30.06,East,84,3.0,8.0,28,0.00,,,0.00,Wunderground v.1.15,2013-02-08 23:20:00,
2013-02-08 17:26:00,66.8,32.6,30.05,ENE,77,4.0,8.0,28,0.00,,,0.00,Wunderground v.1.15,2013-02-08 23:26:00,
2013-02-08 17:32:00,66.8,32.6,30.05,ENE,75,3.0,4.0,28,0.00,,,0.00,Wunderground v.1.15,2013-02-08 23:32:00,
2013-02-08 17:38:00,66.9,32.7,30.06,ENE,72,2.0,8.0,28,0.00,,,0.00,Wunderground v.1.15,2013-02-08 23:38:00,
2013-02-08 17:44:00,66.7,33.4,30.06,SSE,158,2.0,8.0,29,0.00,,,0.00,Wunderground v.1.15,2013-02-08 23:44:00,
2013-02-08 17:50:00,66.6,33.3,30.06,ENE,60,2.0,8.0,29,0.00,,,0.00,Wunderground v.1.15,2013-02-08 23:50:00,
2013-02-08 17:56:00,66.4,33.2,30.06,East,85,2.0,8.0,29,0.00,,,0.00,Wunderground v.1.15,2013-02-08 23:56:00,
2013-02-08 18:02:00,66.2,33.8,30.06,SE,138,2.0,8.0,30,0.00,,,0.00,Wunderground v.1.15,2013-02-09 00:02:00,
2013-02-08 18:08:00,66.0,33.7,30.06,East,89,2.0,8.0,30,0.00,,,0.00,Wunderground v.1.15,2013-02-09 00:08:00,
2013-02-08 18:14:00,65.7,33.4,30.06,ESE,108,2.0,7.0,30,0.00,,,0.00,Wunderground v.1.15,2013-02-09 00:14:00,
2013-02-08 18:20:00,65.4,34.0,30.06,ESE,115,1.0,7.0,31,0.00,,,0.00,Wunderground v.1.15,2013-02-09 00:20:00,
2013-02-08 18:26:00,65.0,33.6,30.06,ESE,114,1.0,7.0,31,0.00,,,0.00,Wunderground v.1.15,2013-02-09 00:26:00,
2013-02-08 18:32:00,64.7,34.1,30.06,East,98,1.0,7.0,32,0.00,,,0.00,Wunderground v.1.15,2013-02-09 00:32:00,
2013-02-08 18:38:00,64.5,34.7,30.06,ESE,111,1.0,7.0,33,0.00,,,0.00,Wunderground v.1.15,2013-02-09 00:38:00,
2013-02-08 18:44:00,64.2,34.5,30.06,East,94,0.0,7.0,33,0.00,,,0.00,Wunderground v.1.15,2013-02-09 00:44:00,
2013-02-08 18:50:00,63.9,35.0,30.05,East,94,1.0,7.0,34,0.00,,,0.00,Wunderground v.1.15,2013-02-09 00:50:00,
2013-02-08 18:56:00,63.8,34.9,30.06,East,89,1.0,7.0,34,0.00,,,0.00,Wunderground v.1.15,2013-02-09 00:56:00,
2013-02-08 19:02:00,63.6,35.4,30.05,East,86,1.0,7.0,35,0.00,,,0.00,Wunderground v.1.15,2013-02-09 01:02:00,
2013-02-08 19:08:00,63.4,35.2,30.05,East,91,1.0,7.0,35,0.00,,,0.00,Wunderground v.1.15,2013-02-09 01:08:00,
2013-02-08 19:14:00,63.2,35.8,30.05,ESE,110,1.0,3.0,36,0.00,,,0.00,Wunderground v.1.15,2013-02-09 01:14:00,
2013-02-08 19:20:00,63.1,35.7,30.05,East,98,1.0,1.0,36,0.00,,,0.00,Wunderground v.1.15,2013-02-09 01:20:00,
2013-02-08 19:26:00,62.9,35.5,30.06,East,81,1.0,3.0,36,0.00,,,0.00,Wunderground v.1.15,2013-02-09 01:26:00,
2013-02-08 19:32:00,62.8,36.1,30.06,East,92,1.0,3.0,37,0.00,,,0.00,Wunderground v.1.15,2013-02-09 01:32:00,
2013-02-08 19:38:00,62.6,35.9,30.06,ESE,121,1.0,3.0,37,0.00,,,0.00,Wunderground v.1.15,2013-02-09 01:38:00,
2013-02-08 19:44:00,62.4,36.4,30.06,ESE,121,1.0,3.0,38,0.00,,,0.00,Wunderground v.1.15,2013-02-09 01:44:00,
2013-02-08 19:50:00,62.2,36.3,30.06,ESE,109,0.0,3.0,38,0.00,,,0.00,Wunderground v.1.15,2013-02-09 01:50:00,
2013-02-08 19:56:00,62.1,36.2,30.06,ESE,114,1.0,3.0,38,0.00,,,0.00,Wunderground v.1.15,2013-02-09 01:56:00,
2013-02-08 20:02:00,61.9,36.0,30.06,East,98,1.0,3.0,38,0.00,,,0.00,Wunderground v.1.15,2013-02-09 02:02:00,
2013-02-08 20:08:00,61.8,35.9,30.06,ESE,121,1.0,3.0,38,0.00,,,0.00,Wunderground v.1.15,2013-02-09 02:08:00,
2013-02-08 20:14:00,61.7,35.8,30.06,East,92,2.0,3.0,38,0.00,,,0.00,Wunderground v.1.15,2013-02-09 02:14:00,
2013-02-08 20:20:00,61.6,35.7,30.06,ENE,70,2.0,3.0,38,0.00,,,0.00,Wunderground v.1.15,2013-02-09 02:20:00,
2013-02-08 20:26:00,61.6,35.7,30.07,SE,143,2.0,3.0,38,0.00,,,0.00,Wunderground v.1.15,2013-02-09 02:26:00,
2013-02-08 20:32:00,61.5,36.3,30.07,ESE,115,2.0,3.0,39,0.00,,,0.00,Wunderground v.1.15,2013-02-09 02:32:00,
2013-02-08 20:38:00,61.4,36.2,30.07,ESE,113,2.0,3.0,39,0.00,,,0.00,Wunderground v.1.15,2013-02-09 02:38:00,
2013-02-08 20:44:00,61.1,36.6,30.07,ESE,108,1.0,3.0,40,0.00,,,0.00,Wunderground v.1.15,2013-02-09 02:44:00,
2013-02-08 20:50:00,60.9,36.4,30.07,ESE,104,2.0,2.0,40,0.00,,,0.00,Wunderground v.1.15,2013-02-09 02:50:00,
2013-02-08 20:56:00,60.8,36.9,30.07,East,93,2.0,3.0,41,0.00,,,0.00,Wunderground v.1.15,2013-02-09 02:56:00,
2013-02-08 21:02:00,60.7,36.8,30.08,East,98,1.0,4.0,41,0.00,,,0.00,Wunderground v.1.15,2013-02-09 03:02:00,
2013-02-08 21:08:00,60.5,36.7,30.08,ESE,113,1.0,4.0,41,0.00,,,0.00,Wunderground v.1.15,2013-02-09 03:08:00,
2013-02-08 21:14:00,60.3,37.1,30.08,East,87,2.0,4.0,42,0.00,,,0.00,Wunderground v.1.15,2013-02-09 03:14:00,
2013-02-08 21:20:00,60.3,37.1,30.08,ESE,103,1.0,4.0,42,0.00,,,0.00,Wunderground v.1.15,2013-02-09 03:20:00,
2013-02-08 21:26:00,60.2,37.0,30.08,ESE,103,2.0,4.0,42,0.00,,,0.00,Wunderground v.1.15,2013-02-09 03:26:00,
2013-02-08 21:32:00,60.1,36.9,30.08,SSE,149,2.0,4.0,42,0.00,,,0.00,Wunderground v.1.15,2013-02-09 03:32:00,
2013-02-08 21:38:00,59.9,37.3,30.07,East,82,2.0,4.0,43,0.00,,,0.00,Wunderground v.1.15,2013-02-09 03:38:00,
2013-02-08 21:44:00,59.7,37.2,30.08,ESE,105,2.0,4.0,43,0.00,,,0.00,Wunderground v.1.15,2013-02-09 03:44:00,
2013-02-08 21:50:00,59.5,37.0,30.07,East,89,2.0,2.0,43,0.00,,,0.00,Wunderground v.1.15,2013-02-09 03:50:00,
2013-02-08 21:56:00,59.3,37.4,30.07,ESE,113,2.0,4.0,44,0.00,,,0.00,Wunderground v.1.15,2013-02-09 03:56:00,
2013-02-08 22:02:00,59.1,37.2,30.07,ESE,110,2.0,4.0,44,0.00,,,0.00,Wunderground v.1.15,2013-02-09 04:02:00,
2013-02-08 22:08:00,58.9,37.6,30.07,ESE,117,1.0,4.0,45,0.00,,,0.00,Wunderground v.1.15,2013-02-09 04:08:00,
2013-02-08 22:14:00,58.7,37.4,30.07,ESE,108,1.0,4.0,45,0.00,,,0.00,Wunderground v.1.15,2013-02-09 04:14:00,
2013-02-08 22:20:00,58.6,37.9,30.07,ESE,117,1.0,4.0,46,0.00,,,0.00,Wunderground v.1.15,2013-02-09 04:20:00,
2013-02-08 22:26:00,58.4,37.7,30.07,SE,131,1.0,4.0,46,0.00,,,0.00,Wunderground v.1.15,2013-02-09 04:26:00,
2013-02-08 22:32:00,58.3,37.6,30.07,ENE,70,1.0,4.0,46,0.00,,,0.00,Wunderground v.1.15,2013-02-09 04:32:00,
2013-02-08 22:38:00,58.3,38.1,30.07,ENE,78,2.0,4.0,47,0.00,,,0.00,Wunderground v.1.15,2013-02-09 04:38:00,
2013-02-08 22:44:00,58.2,38.1,30.07,ESE,113,2.0,4.0,47,0.00,,,0.00,Wunderground v.1.15,2013-02-09 04:44:00,
2013-02-08 22:50:00,58.3,38.1,30.07,ESE,121,2.0,4.0,47,0.00,,,0.00,Wunderground v.1.15,2013-02-09 04:50:00,
2013-02-08 22:56:00,58.2,38.1,30.07,ESE,113,2.0,4.0,47,0.00,,,0.00,Wunderground v.1.15,2013-02-09 04:56:00,
2013-02-08 23:00:00,58.2,38.1,30.07,ENE,77,2.0,4.0,47,0.00,,,0.00,Wunderground v.1.15,2013-02-09 05:00:00,
2013-02-08 23:04:00,58.2,38.1,30.07,East,91,2.0,4.0,47,0.00,,,0.00,Wunderground v.1.15,2013-02-09 05:04:00,
2013-02-08 23:06:00,58.2,38.6,30.07,ESE,103,2.0,4.0,48,0.00,,,0.00,Wunderground v.1.15,2013-02-09 05:06:00,
2013-02-08 23:08:00,58.1,38.5,30.06,ENE,77,3.0,4.0,48,0.00,,,0.00,Wunderground v.1.15,2013-02-09 05:08:00,
2013-02-08 23:14:00,58.0,38.4,30.06,NE,43,3.0,4.0,48,0.00,,,0.00,Wunderground v.1.15,2013-02-09 05:14:00,
2013-02-08 23:20:00,57.8,38.8,30.07,ESE,106,3.0,3.0,49,0.00,,,0.00,Wunderground v.1.15,2013-02-09 05:20:00,
2013-02-08 23:26:00,57.6,38.6,30.06,East,98,3.0,4.0,49,0.00,,,0.00,Wunderground v.1.15,2013-02-09 05:26:00,
2013-02-08 23:32:00,57.6,39.1,30.07,ENE,67,3.0,4.0,50,0.00,,,0.00,Wunderground v.1.15,2013-02-09 05:32:00,
2013-02-08 23:38:00,57.6,39.6,30.07,ESE,107,3.0,7.0,51,0.00,,,0.00,Wunderground v.1.15,2013-02-09 05:38:00,
2013-02-08 23:44:00,57.5,39.5,30.06,East,99,3.0,4.0,51,0.00,,,0.00,Wunderground v.1.15,2013-02-09 05:44:00,
2013-02-08 23:50:00,57.4,39.9,30.06,ESE,113,3.0,4.0,52,0.00,,,0.00,Wunderground v.1.15,2013-02-09 05:50:00,
2013-02-08 23:56:00,57.3,40.3,30.05,East,93,4.0,4.0,53,0.00,,,0.00,Wunderground v.1.15,2013-02-09 05:56:00,